[[[{"header":{"parameterUnit":"kt","parameterCategory":2,"dx":1,"dy":1,"la1":30.253999710083008,"la2":30.299108505249023,"lo1":-89.0895004272461,"lo2":-89.04439544677734,"nx":28,"ny":28,"refTime":"2022-10-26T21:00:00:Z","depth":"0","parameterNumber":2,"parameterNumberName":"U-component_of_CURRENTS"},"data":[0.4712,0.4736,0.4779,0.4782,0.4817,0.4763,0.4768,0.4793,0.4971,0.5177,0.5353,0.5627,0.6088,0.6378,0.6272,0.6079,0.5611,0.5325,0.5332,0.594,0.599,0.6037,0.5851,0.5566,0.5566,0.4182,0.4173,0.4166,0.4757,0.4804,0.4888,0.4973,0.4998,0.5107,0.5224,0.5214,0.5331,0.5701,0.5939,0.6227,0.6364,0.6578,0.6674,0.6473,0.6063,0.6292,0.5781,0.564,0.6436,0.6251,0.6047,0.6047,0.6047,0.6048,0.6048,0.6048,0.485,0.4877,0.4982,0.5079,0.5175,0.5259,0.5281,0.5496,0.5693,0.5991,0.6327,0.6579,0.6886,0.7229,0.7231,0.7089,0.7031,0.6847,0.6871,0.6599,0.6227,0.7004,0.7086,0.709,0.7093,0.7096,0.7099,0,0.4927,0.4974,0.5057,0.5179,0.5274,0.5389,0.5573,0.5671,0.6023,0.6243,0.6567,0.6798,0.7245,0.7323,0.7589,0.7603,0.7262,0.7546,0.745,0.676,0.6337,0.6103,0.6949,0.7102,0.7106,0.7109,0.7111,0.7113,0.4989,0.5037,0.5212,0.5269,0.5356,0.5517,0.5628,0.5912,0.6055,0.6529,0.6629,0.7042,0.7258,0.7656,0.772,0.7875,0.7644,0.7638,0.7387,0.7211,0.7182,0.6866,0.666,0.7156,0.715,0.7146,0.7142,0,0.5014,0.5133,0.5246,0.5449,0.5509,0.5604,0.586,0.5986,0.6267,0.6505,0.6599,0.6962,0.7256,0.7445,0.7693,0.7646,0.7586,0.7801,0.7463,0.7418,0.719,0.7162,0.7003,0.6775,0.7839,0.7839,0.7839,0,0.5106,0.518,0.5357,0.5414,0.5543,0.5728,0.5896,0.6057,0.6315,0.6485,0.6702,0.687,0.7061,0.7267,0.7322,0.748,0.7579,0.744,0.7441,0.7154,0.7119,0.7002,0.6956,0.7552,0.7549,0.7547,0.7545,0,0.5108,0.5292,0.5395,0.5461,0.568,0.5764,0.5888,0.6116,0.6247,0.6509,0.6634,0.683,0.696,0.7079,0.72,0.7112,0.7476,0.7352,0.7352,0.7346,0.7119,0.7083,0.7169,0.7542,0.7542,0.7541,0.754,0,0.5188,0.5286,0.5419,0.5609,0.5659,0.5742,0.5954,0.6079,0.6304,0.6396,0.6542,0.6615,0.6803,0.6716,0.6973,0.6875,0.6944,0.7,0.7011,0.6917,0.6811,0.6779,0.6935,0.6793,0.708,0.7076,0.7073,0,0.5169,0.5306,0.5407,0.5533,0.5621,0.5736,0.5862,0.5991,0.61,0.6244,0.6333,0.6461,0.6412,0.6473,0.6569,0.6674,0.6787,0.6622,0.6821,0.6828,0.6754,0.6952,0.665,0.688,0.7019,0.7025,0.7029,0,0.5149,0.5334,0.5344,0.5419,0.5573,0.5629,0.5758,0.5898,0.5999,0.6061,0.6211,0.6302,0.6327,0.6367,0.6388,0.6483,0.6696,0.6455,0.6458,0.6582,0.6966,0.6886,0.6915,0.6682,0.6688,0.6693,0.6987,0,0.5241,0.5307,0.534,0.5458,0.5531,0.5596,0.5706,0.5761,0.5809,0.5879,0.6009,0.6044,0.6134,0.615,0.6159,0.633,0.6327,0.6273,0.6232,0.6349,0.6456,0.649,0.6055,0.6053,0.6051,0.6049,0,0,0.5197,0.5272,0.5328,0.5403,0.5474,0.5525,0.56,0.5656,0.5731,0.579,0.576,0.5899,0.591,0.6055,0.6096,0.6076,0.6139,0.6074,0.6264,0.6288,0.631,0.642,0.6455,0.6045,0.6045,0.6044,0.6043,0,0.523,0.527,0.5309,0.5376,0.5471,0.552,0.5541,0.5618,0.5659,0.5728,0.5751,0.5811,0.585,0.5912,0.5945,0.6039,0.6057,0.6034,0.6133,0.6243,0.6269,0.6293,0.6406,0.6438,0.6038,0.6039,0.6039,0,0.524,0.53,0.5315,0.5404,0.5454,0.5525,0.5532,0.5587,0.5652,0.5631,0.57,0.572,0.5751,0.5821,0.5845,0.5812,0.5989,0.5885,0.5895,0.592,0.6031,0.6061,0.6087,0.5756,0.5755,0.5755,0,0,0.5265,0.5299,0.5389,0.5416,0.5454,0.5516,0.5549,0.5578,0.5622,0.5634,0.5652,0.5676,0.5729,0.5745,0.5769,0.5815,0.5857,0.5854,0.5868,0.5879,0.591,0.6023,0.6051,0.5753,0.5752,0.5752,0,0,0.527,0.5362,0.5384,0.5423,0.5486,0.5554,0.5579,0.5604,0.5634,0.5632,0.5643,0.5648,0.5709,0.569,0.5663,0.5764,0.5703,0.5709,0.5792,0.5808,0.5821,0.5858,0.5636,0,0,0,0,0,0.534,0.5355,0.5375,0.5392,0.5477,0.5547,0.5558,0.5598,0.56,0.5613,0.5638,0.5619,0.5686,0.5662,0.5664,0.5725,0.5725,0.573,0.5735,0.5853,0.587,0.5885,0,0,0,0,0,0,0.5347,0.5366,0.5376,0.5443,0.5465,0.5545,0.5547,0.5557,0.5599,0.5601,0.5618,0.5619,0.562,0.5659,0.5662,0.5721,0.5635,0.5727,0.5731,0.5735,0.5859,0.5873,0.5885,0,0,0,0,0,0.5354,0.5369,0.5491,0.5443,0.5462,0.5528,0.5546,0.5554,0.5576,0.5604,0.5607,0.5609,0.562,0.5623,0.5661,0.5721,0.5633,0.5634,0.573,0.5733,0.5736,0.5866,0,0,0,0,0,0,0.5358,0.536,0.5496,0.5504,0.5441,0.5524,0.5535,0.5552,0.5575,0.5582,0.5594,0.5594,0.562,0.5622,0.5624,0.5723,0.5632,0.5633,0.5633,0.5732,0.5735,0.5737,0,0,0,0,0,0,0.5353,0.5365,0.5499,0.5493,0.5501,0.552,0.553,0.5541,0.5572,0.5559,0.5564,0.5594,0.5612,0.5622,0.5623,0.5639,0.5631,0.5632,0.5632,0.5633,0.5734,0.5736,0,0,0,0,0,0,0.5359,0.537,0.5491,0.5496,0.5502,0.5587,0.5528,0.5601,0.5604,0.5555,0.5604,0.5604,0.5611,0.5613,0.5623,0.5638,0.5639,0.5631,0.5631,0.5632,0.5632,0,0,0,0,0,0,0,0.5364,0.5281,0.5462,0.5498,0.5504,0.5583,0.5583,0.5584,0.5604,0.5604,0.5604,0.5604,0.5625,0.5626,0.5627,0.5637,0,0,0.5631,0.5631,0,0,0,0,0,0,0,0,0.5278,0.528,0.5462,0.5464,0.5467,0.5583,0.5583,0.5584,0.5604,0.5604,0.5604,0.5604,0.5626,0.5627,0.5627,0,0,0,0,0,0,0,0,0,0,0,0,0,0,0,0.5462,0.5464,0,0.5583,0.5583,0.5584,0.5604,0.5604,0.5604,0.5604,0.5626,0.5627,0.5627,0,0,0,0,0,0,0,0,0,0,0,0,0,0,0,0,0,0,0,0,0,0,0,0,0,0,0,0,0,0,0,0,0,0,0,0,0,0,0,0,0,0,0,0,0,0,0,0,0,0,0,0,0,0,0,0,0,0,0,0,0,0,0,0,0,0,0,0,0]}],[{"header":{"parameterUnit":"kt","parameterCategory":2,"dx":1,"dy":1,"la1":30.253999710083008,"la2":30.299108505249023,"lo1":-89.0895004272461,"lo2":-89.04439544677734,"nx":28,"ny":28,"refTime":"2022-10-26T21:00:00:Z","depth":"0","parameterNumber":3,"parameterNumberName":"V-component_of_CURRENTS"},"data":[0.0932,0.1125,0.1219,0.1619,0.1801,0.2137,0.2361,0.2721,0.3,0.3422,0.3497,0.3472,0.2618,0.0062,-0.1729,-0.2131,-0.2693,-0.2768,-0.308,-0.2605,-0.2566,-0.2529,-0.2597,-0.292,-0.2922,-0.3801,-0.3811,-0.3818,0.0851,0.0968,0.1135,0.1374,0.1604,0.1654,0.1998,0.2232,0.2677,0.2989,0.3244,0.2902,0.1947,0.0889,-0.0576,-0.1342,-0.1645,-0.176,-0.2052,-0.2142,-0.1314,-0.1328,-0.1386,-0.1386,-0.1385,-0.1385,-0.1384,-0.1384,0.0714,0.0812,0.0947,0.1122,0.1287,0.1544,0.173,0.1965,0.2275,0.2617,0.2611,0.2736,0.1905,0.09,0.0335,-0.0742,-0.0811,-0.1122,-0.1349,-0.1487,-0.1646,-0.0656,-0.0651,-0.0652,-0.0652,-0.0653,-0.0653,0,0.0609,0.0657,0.0743,0.0922,0.1051,0.121,0.1376,0.1535,0.1641,0.1821,0.2073,0.2099,0.161,0.1102,0.0356,-0.0022,-0.092,-0.0656,-0.1058,-0.1404,-0.154,-0.1722,-0.0822,-0.0785,-0.0786,-0.0788,-0.0788,-0.0789,0.0483,0.0551,0.0659,0.0741,0.0773,0.0897,0.0995,0.1017,0.1149,0.1289,0.1403,0.1281,0.1284,0.0761,0.0148,-0.0361,-0.0765,-0.0676,-0.0858,-0.118,-0.1459,-0.1627,-0.1744,-0.0805,-0.0803,-0.0802,-0.08,0,0.0425,0.0424,0.0524,0.0566,0.0598,0.0686,0.0791,0.0876,0.0865,0.1019,0.1014,0.0859,0.069,0.0282,-0.0101,-0.0417,-0.0893,-0.0805,-0.0679,-0.0719,-0.1207,-0.1418,-0.1708,-0.1855,-0.0941,-0.094,-0.0939,0,0.0303,0.0362,0.0377,0.042,0.0531,0.0486,0.0601,0.0566,0.0577,0.069,0.0441,0.0509,0.0063,-0.0081,-0.0399,-0.064,-0.0648,-0.0945,-0.0999,-0.0957,-0.0949,-0.1308,-0.1527,-0.1057,-0.1057,-0.1057,-0.1057,0,0.0193,0.0228,0.0302,0.0306,0.0306,0.0342,0.0345,0.0301,0.0336,0.0252,0.0288,0.0068,0.0015,-0.0245,-0.0523,-0.0599,-0.0744,-0.0903,-0.1008,-0.1004,-0.1004,-0.1,-0.1296,-0.1057,-0.1057,-0.1057,-0.1057,0,0.0068,0.0093,0.0171,0.0188,0.0191,0.0216,0.0223,0.0213,0.0131,0.0081,-0.0016,-0.0151,-0.029,-0.0438,-0.0673,-0.0648,-0.0816,-0.0956,-0.0961,-0.095,-0.1046,-0.0984,-0.0923,-0.1291,-0.1039,-0.1039,-0.1039,0,-0.0029,0.0029,-0.0019,0.0042,0.0062,-0.0022,-0.0021,-0.0071,-0.0135,-0.0164,-0.0344,-0.0406,-0.0571,-0.0612,-0.0719,-0.0886,-0.0949,-0.0936,-0.1093,-0.1095,-0.1037,-0.0985,-0.0932,-0.0925,-0.1038,-0.1038,-0.1038,0,-0.0119,-0.015,-0.0145,-0.0132,-0.0194,-0.0191,-0.0206,-0.0253,-0.0244,-0.0366,-0.0372,-0.0561,-0.0641,-0.0712,-0.0846,-0.0925,-0.095,-0.1003,-0.1009,-0.098,-0.104,-0.0989,-0.0985,-0.1034,-0.1034,-0.1034,-0.1037,0,-0.0236,-0.0234,-0.0216,-0.0252,-0.027,-0.026,-0.0352,-0.0372,-0.0443,-0.0513,-0.059,-0.0742,-0.0837,-0.0907,-0.0993,-0.104,-0.1047,-0.1129,-0.116,-0.113,-0.1136,-0.1136,-0.1163,-0.1165,-0.1167,-0.1169,0,0,-0.0327,-0.0325,-0.0404,-0.0394,-0.041,-0.0518,-0.0494,-0.055,-0.0639,-0.0662,-0.0712,-0.0883,-0.0989,-0.1068,-0.1079,-0.1136,-0.1154,-0.1113,-0.1149,-0.1146,-0.1144,-0.1147,-0.1145,-0.1172,-0.1172,-0.1173,-0.1173,0,-0.0383,-0.0431,-0.0412,-0.0447,-0.0505,-0.0562,-0.0559,-0.0645,-0.0686,-0.0727,-0.084,-0.0921,-0.1017,-0.1108,-0.1167,-0.1155,-0.1208,-0.1181,-0.1091,-0.1162,-0.1157,-0.1153,-0.1154,-0.1152,-0.1178,-0.1177,-0.1177,0,-0.0476,-0.0522,-0.0528,-0.0585,-0.0634,-0.0645,-0.0737,-0.075,-0.0764,-0.0891,-0.0923,-0.1014,-0.1124,-0.1171,-0.1197,-0.1216,-0.125,-0.1254,-0.1247,-0.1212,-0.1288,-0.1282,-0.1277,-0.1342,-0.1342,-0.1342,0,0,-0.0519,-0.0526,-0.0617,-0.0607,-0.0631,-0.0721,-0.0745,-0.0791,-0.0858,-0.0883,-0.096,-0.1045,-0.1122,-0.1155,-0.1221,-0.1252,-0.1284,-0.1269,-0.1261,-0.1254,-0.1216,-0.1289,-0.1283,-0.1342,-0.1342,-0.1342,0,0,-0.0542,-0.0633,-0.0678,-0.0675,-0.0724,-0.0817,-0.0813,-0.087,-0.0924,-0.0932,-0.104,-0.1062,-0.1107,-0.1163,-0.1152,-0.1235,-0.1275,-0.1278,-0.1182,-0.1173,-0.1166,-0.1102,-0.1228,0,0,0,0,0,-0.0651,-0.0622,-0.0662,-0.0675,-0.0764,-0.08,-0.0814,-0.0886,-0.0928,-0.0914,-0.0997,-0.1048,-0.1185,-0.1177,-0.1194,-0.1194,-0.134,-0.1341,-0.1341,-0.1226,-0.1217,-0.1208,0,0,0,0,0,0,-0.0656,-0.067,-0.0663,-0.0752,-0.0774,-0.0802,-0.088,-0.09,-0.093,-0.0938,-0.1034,-0.1051,-0.112,-0.1173,-0.1187,-0.1185,-0.1223,-0.134,-0.1341,-0.1341,-0.1223,-0.1215,-0.1208,0,0,0,0,0,-0.0661,-0.0673,-0.0791,-0.0754,-0.0773,-0.0868,-0.0881,-0.0897,-0.0919,-0.1024,-0.1043,-0.097,-0.1117,-0.1135,-0.1182,-0.1177,-0.1214,-0.1219,-0.1341,-0.1341,-0.1341,-0.1219,0,0,0,0,0,0,-0.0665,-0.0691,-0.0797,-0.0807,-0.076,-0.0867,-0.0883,-0.0895,-0.1005,-0.1023,-0.0966,-0.0972,-0.1116,-0.113,-0.1143,-0.117,-0.1206,-0.1211,-0.1215,-0.1341,-0.1341,-0.1341,0,0,0,0,0,0,-0.0686,-0.0698,-0.0802,-0.0805,-0.0816,-0.0866,-0.088,-0.0929,-0.1005,-0.094,-0.0948,-0.0967,-0.11,-0.1126,-0.1136,-0.121,-0.12,-0.1205,-0.1209,-0.1211,-0.1341,-0.1341,0,0,0,0,0,0,-0.0693,-0.0704,-0.0803,-0.0811,-0.0821,-0.0934,-0.0912,-0.1,-0.1003,-0.0934,-0.1006,-0.1007,-0.1095,-0.1107,-0.1132,-0.1201,-0.1208,-0.12,-0.1204,-0.1206,-0.1208,0,0,0,0,0,0,0,-0.0699,-0.0604,-0.0741,-0.0816,-0.0825,-0.0897,-0.0899,-0.0901,-0.1003,-0.1005,-0.1006,-0.1007,-0.1172,-0.1177,-0.1183,-0.1193,0,0,-0.12,-0.1202,0,0,0,0,0,0,0,0,-0.0602,-0.0604,-0.0742,-0.0744,-0.0746,-0.0897,-0.0899,-0.0901,-0.1003,-0.1004,-0.1005,-0.1006,-0.1173,-0.1178,-0.1182,0,0,0,0,0,0,0,0,0,0,0,0,0,0,0,-0.0742,-0.0744,0,-0.0897,-0.0899,-0.0901,-0.1004,-0.1004,-0.1005,-0.1006,-0.1175,-0.1178,-0.1182,0,0,0,0,0,0,0,0,0,0,0,0,0,0,0,0,0,0,0,0,0,0,0,0,0,0,0,0,0,0,0,0,0,0,0,0,0,0,0,0,0,0,0,0,0,0,0,0,0,0,0,0,0,0,0,0,0,0,0,0,0,0,0,0,0,0,0,0,0]}]],[[{"header":{"parameterUnit":"kt","parameterCategory":2,"dx":1,"dy":1,"la1":30.253999710083008,"la2":30.299108505249023,"lo1":-89.0895004272461,"lo2":-89.04439544677734,"nx":28,"ny":28,"refTime":"2022-10-26T21:00:00:Z","depth":"2","parameterNumber":2,"parameterNumberName":"U-component_of_CURRENTS"},"data":[0.4369,0.4398,0.443,0.4391,0.445,0.4408,0.4382,0.4305,0.437,0.4244,0.4273,0.4649,0.4904,0.4251,0.4196,0.3931,0.4193,0.378,0.524,0.5137,0.5208,0.5432,0.5133,0,0,0,0,0,0.4416,0.446,0.4575,0.4642,0.4661,0.4808,0.4867,0.4805,0.4833,0.5052,0.517,0.4863,0.4858,0.5012,0.4828,0.4873,0.4786,0.4641,0.4473,0.4566,0.4647,0.4378,0.3747,0.374,0.3734,0.3728,0,0,0.4515,0.4544,0.4693,0.4776,0.4887,0.4913,0.493,0.5126,0.5264,0.5441,0.5712,0.5778,0.5942,0.5951,0.5797,0.5733,0.619,0.5913,0.5938,0.5974,0.5781,0.5635,0.5517,0.5524,0.5529,0.5534,0.5539,0,0.458,0.4655,0.4741,0.4886,0.4997,0.5078,0.5275,0.5357,0.5696,0.5854,0.6066,0.6212,0.6528,0.6412,0.6571,0.6529,0.654,0.6408,0.7165,0.6019,0.5872,0.5828,0.5844,0.5835,0.5843,0.5849,0.5854,0.5857,0.4647,0.4702,0.4902,0.4958,0.5056,0.5224,0.5332,0.562,0.5772,0.6142,0.6234,0.654,0.6676,0.6925,0.6958,0.7049,0.7144,0.6599,0.6432,0.6983,0.6944,0.6922,0.69,0.5949,0.5937,0.5928,0.592,0,0.4684,0.4802,0.4928,0.514,0.52,0.5304,0.5557,0.5691,0.5949,0.6165,0.626,0.6574,0.6769,0.6931,0.714,0.7103,0.7175,0.7164,0.6608,0.6522,0.6934,0.6908,0.7141,0.7137,0.7134,0.7132,0.7129,0,0.4786,0.4866,0.5051,0.5101,0.5234,0.5407,0.5584,0.5752,0.6005,0.616,0.6381,0.6507,0.6737,0.6881,0.6919,0.699,0.7121,0.6968,0.6951,0.6501,0.6444,0.6928,0.6896,0.7182,0.718,0.7179,0.7177,0,0.48,0.4975,0.5074,0.5128,0.5334,0.5432,0.5565,0.5787,0.5912,0.6189,0.6307,0.6516,0.6642,0.6757,0.6825,0.6785,0.7041,0.6983,0.6896,0.6883,0.6469,0.6409,0.7175,0.7175,0.7175,0.7174,0.7173,0,0.4873,0.4961,0.508,0.5259,0.5304,0.5396,0.5611,0.5733,0.5967,0.6067,0.6243,0.632,0.6505,0.644,0.6664,0.6581,0.6644,0.6685,0.6693,0.6505,0.6385,0.6094,0.6185,0.6716,0.6712,0.6709,0.6705,0,0.4858,0.4978,0.5061,0.5187,0.526,0.5378,0.5488,0.5631,0.5757,0.5914,0.6024,0.6157,0.6125,0.6198,0.6301,0.637,0.6488,0.6346,0.6497,0.6501,0.6333,0.6518,0.6015,0.615,0.6658,0.6663,0.6666,0,0.4828,0.4982,0.4991,0.5063,0.5199,0.5257,0.5386,0.5535,0.5641,0.5741,0.589,0.6001,0.6047,0.6085,0.6104,0.6203,0.6401,0.6171,0.6173,0.6251,0.6643,0.647,0.6486,0.6404,0.641,0.6415,0.6629,0,0.4878,0.4941,0.4973,0.5083,0.515,0.5221,0.5317,0.5396,0.5459,0.5533,0.5684,0.573,0.5836,0.5858,0.5858,0.6036,0.6016,0.5973,0.5919,0.6057,0.6125,0.6156,0.5756,0.5754,0.5751,0.575,0,0,0.4834,0.4895,0.4946,0.5012,0.5074,0.5137,0.5208,0.5263,0.5352,0.5417,0.5405,0.5562,0.5575,0.572,0.5781,0.576,0.581,0.5758,0.5969,0.5993,0.6016,0.609,0.6121,0.5746,0.5745,0.5744,0.5743,0,0.484,0.4875,0.4923,0.4978,0.5078,0.5125,0.5148,0.5225,0.5273,0.5354,0.5379,0.5463,0.5505,0.5575,0.5605,0.5719,0.5716,0.5724,0.5837,0.5945,0.5972,0.5997,0.6075,0.6105,0.5738,0.5738,0.5738,0,0.4831,0.4885,0.4904,0.4985,0.5032,0.5099,0.5103,0.5174,0.5238,0.5221,0.5306,0.5338,0.5367,0.5457,0.549,0.5456,0.5636,0.554,0.5552,0.557,0.5678,0.5709,0.5737,0.5384,0.5384,0.5383,0,0,0.4845,0.4884,0.4957,0.4989,0.5024,0.5078,0.5115,0.5159,0.5206,0.5229,0.5253,0.529,0.5342,0.5369,0.5398,0.5449,0.5474,0.55,0.5517,0.5531,0.5557,0.5667,0.5697,0.538,0.5379,0.5379,0,0,0.4846,0.4924,0.4946,0.4986,0.5048,0.5106,0.5146,0.5167,0.5213,0.5229,0.5234,0.5242,0.5321,0.5303,0.5262,0.5397,0.5325,0.5332,0.5421,0.5441,0.5457,0.5487,0.5234,0,0,0,0,0,0.4892,0.4912,0.4931,0.4947,0.5023,0.5088,0.5101,0.5163,0.5167,0.5195,0.5232,0.5209,0.531,0.5273,0.5271,0.5343,0.5337,0.5345,0.5352,0.5478,0.5499,0.5517,0,0,0,0,0,0,0.4898,0.4913,0.4932,0.4985,0.5005,0.5086,0.51,0.5115,0.5167,0.5175,0.5204,0.5208,0.5217,0.5271,0.527,0.534,0.5235,0.534,0.5347,0.5352,0.5485,0.5503,0.5518,0,0,0,0,0,0.4904,0.4916,0.5021,0.4986,0.5003,0.5092,0.51,0.5114,0.5147,0.5181,0.5189,0.5201,0.5216,0.5218,0.527,0.5342,0.5235,0.5235,0.5344,0.5349,0.5354,0.5494,0,0,0,0,0,0,0.4908,0.4911,0.5026,0.5035,0.5001,0.509,0.5104,0.5112,0.515,0.5161,0.5176,0.5181,0.5214,0.5216,0.5217,0.5347,0.5235,0.5235,0.5235,0.5348,0.5352,0.5356,0,0,0,0,0,0,0.4907,0.4917,0.503,0.5045,0.5055,0.5089,0.5101,0.5093,0.5147,0.5139,0.5147,0.5178,0.5208,0.5215,0.5216,0.5201,0.5236,0.5235,0.5235,0.5235,0.5351,0.5354,0,0,0,0,0,0,0.4913,0.4922,0.5042,0.505,0.5059,0.5152,0.508,0.5145,0.5195,0.5134,0.5199,0.5202,0.5205,0.5208,0.5215,0.5199,0.5201,0.5236,0.5235,0.5235,0.5235,0,0,0,0,0,0,0,0.4917,0.4837,0.4988,0.5054,0.5062,0.5119,0.512,0.5121,0.5195,0.5197,0.5199,0.5201,0.5237,0.5237,0.5236,0.5197,0,0,0.5236,0.5236,0,0,0,0,0,0,0,0,0.4836,0.4837,0.4989,0.4991,0.4994,0.5119,0.512,0.512,0.5195,0.5197,0.5199,0.52,0.5237,0.5237,0.5236,0,0,0,0,0,0,0,0,0,0,0,0,0,0,0,0.4989,0.4991,0,0.5119,0.512,0.512,0.5196,0.5197,0.5198,0.5199,0.5237,0.5237,0.5236,0,0,0,0,0,0,0,0,0,0,0,0,0,0,0,0,0,0,0,0,0,0,0,0,0,0,0,0,0,0,0,0,0,0,0,0,0,0,0,0,0,0,0,0,0,0,0,0,0,0,0,0,0,0,0,0,0,0,0,0,0,0,0,0,0,0,0,0,0]}],[{"header":{"parameterUnit":"kt","parameterCategory":2,"dx":1,"dy":1,"la1":30.253999710083008,"la2":30.299108505249023,"lo1":-89.0895004272461,"lo2":-89.04439544677734,"nx":28,"ny":28,"refTime":"2022-10-26T21:00:00:Z","depth":"2","parameterNumber":3,"parameterNumberName":"V-component_of_CURRENTS"},"data":[0.1114,0.1285,0.1379,0.1714,0.1878,0.2161,0.2346,0.2546,0.2682,0.2732,0.269,0.2559,0.1804,0.1114,0.0352,-0.0185,-0.0294,-0.027,-0.0162,-0.0005,0.0002,-0.0528,-0.0466,0,0,0,0,0,0.1056,0.1167,0.1332,0.155,0.1751,0.1825,0.2128,0.2275,0.2535,0.2644,0.2692,0.2182,0.1599,0.0943,0.0009,-0.0557,-0.0598,-0.0719,-0.0665,-0.0661,-0.066,-0.0629,-0.0683,-0.0686,-0.0688,-0.0689,0,0,0.0953,0.1048,0.1172,0.1354,0.1518,0.175,0.1915,0.21,0.2315,0.247,0.2419,0.2328,0.1752,0.0834,0.0225,-0.0399,-0.0389,-0.0624,-0.0622,-0.0621,-0.0588,-0.0545,-0.0631,-0.0632,-0.0632,-0.0633,-0.0633,0,0.0873,0.0909,0.1005,0.1185,0.1315,0.1492,0.1657,0.1796,0.1899,0.2006,0.2118,0.2043,0.1537,0.1006,0.0297,-0.0046,-0.0411,-0.0503,-0.0513,-0.0512,-0.0464,-0.0507,-0.0504,-0.0543,-0.0543,-0.0543,-0.0543,-0.0543,0.0761,0.0828,0.0949,0.1035,0.1074,0.1213,0.1327,0.1375,0.15,0.1596,0.1684,0.1502,0.1408,0.0852,0.0305,-0.0211,-0.0313,-0.0493,-0.0593,-0.0586,-0.0632,-0.0625,-0.0618,-0.0547,-0.0546,-0.0546,-0.0546,0,0.0704,0.0722,0.0832,0.0905,0.0944,0.1038,0.1169,0.1263,0.1268,0.1404,0.1391,0.1236,0.101,0.0638,0.025,-0.0033,-0.0347,-0.0471,-0.0355,-0.0396,-0.0615,-0.0609,-0.0684,-0.0685,-0.0686,-0.0687,-0.0688,0,0.0601,0.0669,0.0709,0.0759,0.0891,0.0876,0.1008,0.099,0.1024,0.1135,0.0925,0.0962,0.0578,0.0409,0.0096,-0.0198,-0.0175,-0.0493,-0.0547,-0.0482,-0.0479,-0.0538,-0.0539,-0.0516,-0.0515,-0.0515,-0.0514,0,0.0497,0.0561,0.0651,0.0669,0.0715,0.0753,0.0775,0.0772,0.0827,0.0763,0.0793,0.061,0.0551,0.0296,0.0002,-0.0043,-0.0242,-0.0336,-0.0521,-0.0524,-0.0526,-0.0528,-0.0513,-0.0513,-0.0513,-0.0513,-0.0513,0,0.0394,0.0438,0.0532,0.0594,0.0607,0.0638,0.0682,0.0697,0.0655,0.062,0.0534,0.042,0.0299,0.0158,-0.0076,-0.0042,-0.0226,-0.0356,-0.0364,-0.0423,-0.0497,-0.0493,-0.0473,-0.0468,-0.0467,-0.0466,-0.0465,0,0.031,0.0385,0.0363,0.044,0.0479,0.0419,0.0456,0.0431,0.0388,0.0377,0.024,0.0204,0.005,0.0009,-0.0086,-0.0234,-0.0312,-0.0271,-0.0465,-0.047,-0.0471,-0.0454,-0.0389,-0.0462,-0.0456,-0.0457,-0.0458,0,0.0235,0.0244,0.025,0.0279,0.0249,0.0258,0.0267,0.0255,0.0284,0.017,0.0193,0.0055,-0.0032,-0.0076,-0.018,-0.0251,-0.0301,-0.034,-0.0347,-0.0355,-0.0422,-0.044,-0.0448,-0.0361,-0.0362,-0.0362,-0.045,0,0.017,0.0182,0.0196,0.0191,0.0181,0.0191,0.0142,0.0115,0.0066,0.0026,-0.0025,-0.0146,-0.0214,-0.0261,-0.0325,-0.0356,-0.0389,-0.0441,-0.0469,-0.0444,-0.0489,-0.0494,-0.0462,-0.0465,-0.0466,-0.0468,0,0,0.0098,0.0119,0.0057,0.0072,0.0072,-0.0017,0.0013,-0.0022,-0.0095,-0.0104,-0.0164,-0.0276,-0.0356,-0.0378,-0.0396,-0.0436,-0.0477,-0.0428,-0.0459,-0.0458,-0.0457,-0.0497,-0.05,-0.0471,-0.0471,-0.0472,-0.0473,0,0.0078,0.0041,0.0057,0.0034,-0.0013,-0.0047,-0.0047,-0.0112,-0.0143,-0.0168,-0.0252,-0.0321,-0.0385,-0.0445,-0.0475,-0.0456,-0.0521,-0.0483,-0.0409,-0.0472,-0.0468,-0.0466,-0.0503,-0.0505,-0.0477,-0.0477,-0.0476,0,0.0022,-0.0004,-0.0007,-0.0048,-0.0084,-0.0084,-0.0158,-0.0182,-0.0178,-0.0286,-0.0309,-0.0387,-0.0459,-0.0492,-0.0513,-0.0531,-0.0559,-0.055,-0.0543,-0.0527,-0.0594,-0.059,-0.0586,-0.0635,-0.0635,-0.0635,0,0,0.0002,0.0001,-0.0058,-0.0058,-0.0076,-0.0138,-0.0161,-0.0205,-0.0256,-0.0283,-0.0347,-0.0413,-0.0459,-0.0487,-0.0541,-0.0554,-0.0599,-0.0563,-0.0556,-0.0549,-0.0529,-0.0594,-0.059,-0.0635,-0.0635,-0.0635,0,0,-0.001,-0.0058,-0.009,-0.0094,-0.0136,-0.0197,-0.021,-0.0249,-0.0303,-0.0316,-0.0394,-0.0414,-0.0454,-0.0501,-0.049,-0.055,-0.0589,-0.0592,-0.0498,-0.049,-0.0483,-0.0445,-0.0555,0,0,0,0,0,-0.0057,-0.0045,-0.0073,-0.0082,-0.0144,-0.0175,-0.0187,-0.0261,-0.0288,-0.0298,-0.0361,-0.0404,-0.0525,-0.0516,-0.0527,-0.0517,-0.0632,-0.0632,-0.0633,-0.0517,-0.0508,-0.05,0,0,0,0,0,0,-0.0061,-0.0069,-0.0074,-0.0128,-0.0144,-0.0175,-0.0237,-0.0257,-0.0291,-0.0302,-0.0389,-0.0406,-0.0465,-0.0514,-0.0523,-0.0512,-0.0552,-0.0632,-0.0632,-0.0633,-0.0514,-0.0506,-0.05,0,0,0,0,0,-0.0064,-0.0071,-0.015,-0.013,-0.0144,-0.0235,-0.0239,-0.0256,-0.0286,-0.0372,-0.0391,-0.0343,-0.0461,-0.0475,-0.052,-0.0507,-0.0546,-0.0549,-0.0632,-0.0633,-0.0633,-0.051,0,0,0,0,0,0,-0.0067,-0.0089,-0.0155,-0.0163,-0.015,-0.0236,-0.0251,-0.0255,-0.0355,-0.0373,-0.0328,-0.0336,-0.0459,-0.047,-0.048,-0.0502,-0.0541,-0.0544,-0.0546,-0.0633,-0.0633,-0.0633,0,0,0,0,0,0,-0.0086,-0.0094,-0.0159,-0.0179,-0.019,-0.0237,-0.025,-0.0275,-0.0356,-0.0307,-0.0316,-0.0331,-0.0449,-0.0466,-0.0475,-0.051,-0.0537,-0.054,-0.0543,-0.0544,-0.0633,-0.0633,0,0,0,0,0,0,-0.0091,-0.0099,-0.0178,-0.0186,-0.0196,-0.0288,-0.0262,-0.0326,-0.0363,-0.0301,-0.037,-0.0373,-0.0444,-0.0454,-0.047,-0.0501,-0.0508,-0.0537,-0.054,-0.0541,-0.0542,0,0,0,0,0,0,0,-0.0096,-0.0025,-0.011,-0.0191,-0.02,-0.0235,-0.0237,-0.0239,-0.0364,-0.0367,-0.037,-0.0372,-0.0519,-0.0523,-0.0526,-0.0494,0,0,-0.0537,-0.0539,0,0,0,0,0,0,0,0,-0.0024,-0.0025,-0.011,-0.0111,-0.0113,-0.0235,-0.0237,-0.0238,-0.0365,-0.0367,-0.0369,-0.0371,-0.052,-0.0523,-0.0526,0,0,0,0,0,0,0,0,0,0,0,0,0,0,0,-0.011,-0.0111,0,-0.0235,-0.0237,-0.0238,-0.0365,-0.0367,-0.0368,-0.037,-0.0521,-0.0523,-0.0526,0,0,0,0,0,0,0,0,0,0,0,0,0,0,0,0,0,0,0,0,0,0,0,0,0,0,0,0,0,0,0,0,0,0,0,0,0,0,0,0,0,0,0,0,0,0,0,0,0,0,0,0,0,0,0,0,0,0,0,0,0,0,0,0,0,0,0,0,0]}]],[[{"header":{"parameterUnit":"kt","parameterCategory":2,"dx":1,"dy":1,"la1":30.253999710083008,"la2":30.299108505249023,"lo1":-89.0895004272461,"lo2":-89.04439544677734,"nx":28,"ny":28,"refTime":"2022-10-26T21:00:00:Z","depth":"4","parameterNumber":2,"parameterNumberName":"U-component_of_CURRENTS"},"data":[0.2308,0.2371,0.2381,0.2348,0.2378,0.2494,0.262,0.2827,0.2844,0.3171,0.3274,0.3532,0.3739,0.3904,0.3953,0.4005,0.3927,0.4471,0.4461,0.4484,0.4507,0.4527,0.4348,0,0,0,0,0,0.239,0.2392,0.2457,0.2538,0.2666,0.2756,0.2964,0.3096,0.3396,0.3404,0.3574,0.3751,0.3905,0.4065,0.402,0.4337,0.4447,0.4265,0.4263,0.4498,0.4524,0.4341,0,0,0,0,0,0,0.2499,0.2521,0.2648,0.2738,0.2877,0.2932,0.3052,0.3189,0.3326,0.3733,0.3769,0.4095,0.4369,0.4403,0.4497,0.4525,0.4429,0.4254,0.429,0.4317,0.4132,0.3973,0.3849,0,0,0,0,0,0.259,0.2706,0.2782,0.2913,0.3038,0.3146,0.3327,0.3381,0.3678,0.395,0.4093,0.4209,0.4426,0.4542,0.466,0.468,0.4861,0.4807,0.4817,0.4642,0.4562,0.4533,0.453,0.4621,0.4624,0.4626,0.4628,0,0.2727,0.2767,0.2987,0.3049,0.3151,0.3313,0.341,0.3662,0.3778,0.4146,0.421,0.4517,0.4672,0.4717,0.4894,0.4957,0.4903,0.4876,0.4689,0.4602,0.4568,0.4559,0.4549,0.4648,0.4647,0.4645,0.4643,0,0.2794,0.2916,0.301,0.3203,0.3273,0.3363,0.3601,0.3699,0.3951,0.4142,0.4238,0.4518,0.4717,0.4881,0.5056,0.4931,0.4966,0.4921,0.5103,0.5082,0.4597,0.4578,0.4682,0.4674,0.4668,0.4663,0.4658,0,0.2919,0.2985,0.317,0.3206,0.3313,0.3456,0.3609,0.3752,0.3966,0.4093,0.431,0.4437,0.4647,0.4802,0.4842,0.4856,0.503,0.4738,0.4712,0.4859,0.4841,0.4842,0.4819,0.5023,0.5021,0.502,0.5019,0,0.2978,0.3111,0.3188,0.3234,0.3388,0.3485,0.3594,0.3784,0.389,0.4132,0.4258,0.4422,0.4567,0.4658,0.478,0.473,0.4974,0.4894,0.47,0.4683,0.4827,0.4806,0.5018,0.5018,0.5017,0.5017,0.5017,0,0.3064,0.3122,0.3215,0.3341,0.3378,0.3462,0.3645,0.3744,0.3936,0.4044,0.4199,0.4283,0.445,0.443,0.4626,0.4572,0.4619,0.4662,0.4667,0.4416,0.4319,0.4497,0.4682,0.4679,0.4676,0.4673,0.4671,0,0.3073,0.3153,0.3226,0.3323,0.3368,0.3488,0.3578,0.37,0.3828,0.3959,0.4065,0.4189,0.4193,0.4275,0.4357,0.4434,0.4513,0.4411,0.4529,0.4532,0.4279,0.4394,0.4481,0.4631,0.4636,0.464,0.4642,0,0.3063,0.3188,0.3207,0.3253,0.3373,0.3418,0.354,0.3648,0.374,0.3863,0.3978,0.4093,0.4148,0.4184,0.4211,0.4296,0.4448,0.4294,0.4296,0.4332,0.463,0.4377,0.4376,0.4459,0.4463,0.4467,0.4615,0,0.3092,0.3158,0.3192,0.3269,0.3332,0.3398,0.3477,0.357,0.3658,0.3711,0.3858,0.3919,0.4013,0.4042,0.4049,0.4185,0.4175,0.4146,0.4099,0.4213,0.426,0.4282,0.3996,0.3995,0.3993,0.3992,0,0,0.306,0.3111,0.3168,0.3213,0.3261,0.3334,0.3386,0.345,0.3548,0.3605,0.3636,0.3786,0.3819,0.3915,0.3972,0.3973,0.4015,0.3981,0.4151,0.4169,0.4185,0.4236,0.4258,0.3989,0.3989,0.3988,0.3988,0,0.3039,0.3105,0.3146,0.3193,0.3272,0.3301,0.3339,0.3408,0.3475,0.3572,0.3594,0.3685,0.3764,0.3803,0.3828,0.3943,0.3942,0.3967,0.4056,0.4135,0.4155,0.4172,0.4225,0.4247,0.3984,0.3984,0.3984,0,0.3012,0.3046,0.3078,0.3144,0.319,0.3237,0.3254,0.3336,0.3393,0.3402,0.3518,0.3558,0.3594,0.3684,0.3732,0.3709,0.3881,0.3811,0.382,0.3833,0.3912,0.3935,0.3955,0.3691,0.369,0.3689,0,0,0.2994,0.3044,0.3085,0.3137,0.3168,0.3219,0.3258,0.3304,0.3362,0.3407,0.3453,0.3514,0.3563,0.3611,0.3647,0.3723,0.374,0.3776,0.379,0.3801,0.382,0.3901,0.3923,0.3686,0.3685,0.3685,0,0,0.298,0.3029,0.3055,0.3111,0.3162,0.3193,0.325,0.3284,0.3369,0.3404,0.342,0.3436,0.354,0.3546,0.3498,0.3646,0.359,0.3599,0.3642,0.3659,0.3673,0.3684,0.3465,0,0,0,0,0,0.2973,0.3012,0.3035,0.3049,0.3122,0.317,0.3183,0.3249,0.3284,0.3335,0.3396,0.3385,0.3536,0.3493,0.35,0.3564,0.3638,0.3647,0.3655,0.3726,0.3745,0.376,0,0,0,0,0,0,0.2978,0.2992,0.3034,0.3059,0.3077,0.3168,0.318,0.3198,0.3282,0.3296,0.3372,0.3384,0.3387,0.3488,0.3495,0.3557,0.3463,0.3642,0.3649,0.3655,0.3733,0.3748,0.376,0,0,0,0,0,0.2982,0.2993,0.31,0.306,0.3075,0.316,0.3182,0.3198,0.3284,0.3302,0.3319,0.3344,0.3384,0.3396,0.3492,0.3555,0.3459,0.3461,0.3646,0.3652,0.3657,0.374,0,0,0,0,0,0,0.2985,0.3005,0.3104,0.3111,0.3082,0.316,0.3176,0.3198,0.3288,0.3305,0.3266,0.3274,0.3381,0.3391,0.34,0.3556,0.3455,0.3457,0.3459,0.3651,0.3655,0.3659,0,0,0,0,0,0,0.2999,0.301,0.3108,0.3132,0.3142,0.316,0.3174,0.3191,0.3288,0.3248,0.3257,0.3268,0.3374,0.3387,0.3395,0.3417,0.3452,0.3455,0.3456,0.3457,0.3654,0.3658,0,0,0,0,0,0,0.3004,0.3014,0.313,0.3138,0.3147,0.3226,0.3176,0.3253,0.3298,0.3242,0.3305,0.3309,0.3369,0.3377,0.339,0.3409,0.3415,0.3452,0.3454,0.3455,0.3456,0,0,0,0,0,0,0,0.3009,0.2934,0.3065,0.3143,0.3151,0.3172,0.3174,0.3176,0.3299,0.3302,0.3305,0.3307,0.3439,0.3441,0.3444,0.3403,0,0,0.3452,0.3453,0,0,0,0,0,0,0,0,0.2932,0.2934,0.3066,0.3067,0.3068,0.3172,0.3174,0.3175,0.3299,0.3302,0.3304,0.3306,0.3439,0.3441,0.3443,0,0,0,0,0,0,0,0,0,0,0,0,0,0,0,0.3066,0.3067,0,0.3173,0.3174,0.3175,0.33,0.3302,0.3304,0.3305,0.344,0.3442,0.3443,0,0,0,0,0,0,0,0,0,0,0,0,0,0,0,0,0,0,0,0,0,0,0,0,0,0,0,0,0,0,0,0,0,0,0,0,0,0,0,0,0,0,0,0,0,0,0,0,0,0,0,0,0,0,0,0,0,0,0,0,0,0,0,0,0,0,0,0,0]}],[{"header":{"parameterUnit":"kt","parameterCategory":2,"dx":1,"dy":1,"la1":30.253999710083008,"la2":30.299108505249023,"lo1":-89.0895004272461,"lo2":-89.04439544677734,"nx":28,"ny":28,"refTime":"2022-10-26T21:00:00:Z","depth":"4","parameterNumber":3,"parameterNumberName":"V-component_of_CURRENTS"},"data":[0.0801,0.0916,0.0983,0.1154,0.1258,0.1435,0.1541,0.1597,0.1577,0.1596,0.1348,0.1269,0.0802,0.1069,0.0344,0.025,0.0134,-0.0344,-0.0352,-0.0486,-0.0477,-0.0468,-0.0347,0,0,0,0,0,0.0796,0.0864,0.0997,0.1148,0.1305,0.1399,0.1564,0.163,0.1698,0.1653,0.1636,0.1368,0.0894,0.0691,0.0362,0.0262,-0.0133,-0.0137,-0.0244,-0.048,-0.047,-0.0355,0,0,0,0,0,0,0.0778,0.0846,0.0959,0.1105,0.1261,0.1397,0.1481,0.1554,0.163,0.1636,0.1597,0.1304,0.115,0.0665,0.0338,0.0018,-0.0057,-0.0147,-0.0155,-0.0148,-0.0011,0.006,-0.0047,0,0,0,0,0,0.075,0.0801,0.0892,0.1054,0.1174,0.1325,0.146,0.152,0.1601,0.1622,0.154,0.1299,0.1011,0.0636,0.0277,-0.004,-0.0214,-0.0346,-0.0342,-0.0297,-0.0274,-0.0312,-0.0296,-0.043,-0.0428,-0.0428,-0.0427,0,0.0701,0.0762,0.0911,0.099,0.1045,0.1186,0.1285,0.1365,0.144,0.1454,0.1473,0.1279,0.1139,0.0645,0.0344,-0.0106,-0.017,-0.0317,-0.0269,-0.0255,-0.03,-0.0285,-0.0271,-0.0419,-0.0419,-0.042,-0.0421,0,0.0675,0.0724,0.0836,0.0941,0.0988,0.1079,0.1219,0.1297,0.1317,0.1383,0.138,0.1242,0.0998,0.0722,0.0395,0.0204,-0.0068,-0.0182,-0.0025,-0.0074,-0.0262,-0.0251,-0.0405,-0.0408,-0.041,-0.0413,-0.0414,0,0.0633,0.0707,0.0787,0.0833,0.096,0.0983,0.1106,0.1125,0.1168,0.1231,0.1123,0.1106,0.0863,0.0683,0.0455,0.0164,0.0183,-0.0037,-0.0099,0.0049,0.0057,-0.0015,-0.0013,-0.0013,-0.0011,-0.001,-0.0009,0,0.0568,0.066,0.0749,0.0773,0.0851,0.0899,0.0948,0.0974,0.1029,0.1012,0.1019,0.0916,0.0863,0.0672,0.0429,0.0433,0.0172,0.015,-0.0043,-0.005,-0.0005,-0.0006,-0.0007,-0.0006,-0.0006,-0.0005,-0.0005,0,0.0515,0.057,0.0662,0.075,0.0767,0.0808,0.0876,0.0913,0.0909,0.0895,0.0863,0.0797,0.073,0.0648,0.0444,0.0492,0.0338,0.0225,0.0214,0.0123,0.0055,0.0033,0.005,0.0052,0.0053,0.0055,0.0056,0,0.0462,0.0539,0.0541,0.0625,0.0668,0.0652,0.0697,0.0707,0.0698,0.0708,0.0644,0.0647,0.0567,0.0561,0.0496,0.0375,0.0303,0.0381,0.0126,0.0118,0.0085,0.0089,0.0288,0.0077,0.0074,0.0073,0.0071,0,0.0404,0.0446,0.0454,0.0493,0.0497,0.0514,0.0545,0.057,0.0606,0.0554,0.0586,0.055,0.0502,0.0485,0.0434,0.0381,0.0325,0.0304,0.0298,0.0228,0.0161,0.0117,0.0099,0.0292,0.0291,0.029,0.0086,0,0.0377,0.0402,0.0415,0.0437,0.044,0.0461,0.0447,0.0448,0.0434,0.0422,0.0422,0.0365,0.0347,0.0331,0.0303,0.03,0.0239,0.0213,0.0171,0.0208,0.0108,0.0098,0.0193,0.0191,0.0189,0.0188,0,0,0.0328,0.0356,0.0324,0.0345,0.0358,0.0314,0.0348,0.0334,0.0308,0.0317,0.0283,0.0246,0.021,0.0231,0.0244,0.0215,0.0148,0.0208,0.0193,0.0194,0.0194,0.0103,0.0095,0.0184,0.0184,0.0183,0.0182,0,0.0319,0.03,0.0321,0.0315,0.0304,0.0293,0.0297,0.027,0.0264,0.0264,0.0229,0.0213,0.0175,0.0163,0.0153,0.019,0.0103,0.0171,0.0238,0.0179,0.0183,0.0185,0.0097,0.0091,0.0178,0.0178,0.0178,0,0.0286,0.0282,0.0284,0.0272,0.0256,0.0269,0.0226,0.0221,0.024,0.0172,0.0179,0.0143,0.0104,0.0106,0.0099,0.0078,0.0053,0.0078,0.0086,0.0088,0.0023,0.0028,0.0032,-0.0023,-0.0023,-0.0024,0,0,0.028,0.0287,0.0264,0.0267,0.0262,0.0232,0.0223,0.0208,0.0188,0.0178,0.0145,0.0114,0.01,0.0089,0.0059,0.0054,-0.0009,0.0059,0.0068,0.0076,0.0084,0.0021,0.0026,-0.0024,-0.0024,-0.0024,0,0,0.0275,0.0263,0.025,0.0252,0.0237,0.0206,0.0203,0.0186,0.0164,0.0162,0.0119,0.0109,0.0106,0.0064,0.0064,0.0053,0.0006,0.0005,0.01,0.011,0.0119,0.0139,0.0018,0,0,0,0,0,0.026,0.0267,0.0256,0.0253,0.0223,0.0212,0.0206,0.0179,0.0168,0.0167,0.0143,0.011,0.0057,0.0056,0.0046,0.007,-0.0031,-0.0029,-0.0028,0.009,0.0102,0.0112,0,0,0,0,0,0,0.0258,0.0256,0.0255,0.0228,0.0221,0.0211,0.0187,0.0179,0.0168,0.0165,0.0116,0.0108,0.0076,0.0058,0.0049,0.0074,0.0021,-0.003,-0.0029,-0.0028,0.0094,0.0104,0.0112,0,0,0,0,0,0.0257,0.0255,0.022,0.0227,0.0221,0.0188,0.0186,0.018,0.0168,0.0122,0.0114,0.0152,0.0077,0.0067,0.0053,0.008,0.0027,0.0024,-0.003,-0.0029,-0.0028,0.0099,0,0,0,0,0,0,0.0257,0.0239,0.0217,0.0213,0.0229,0.0188,0.0182,0.0181,0.0125,0.0117,0.0155,0.0154,0.0077,0.0069,0.0062,0.0085,0.0031,0.0028,0.0026,-0.0029,-0.0028,-0.0028,0,0,0,0,0,0,0.024,0.0236,0.0215,0.022,0.0216,0.0188,0.0183,0.0151,0.0124,0.016,0.0157,0.0155,0.0088,0.0071,0.0066,0.0017,0.0035,0.0032,0.003,0.0029,-0.0028,-0.0028,0,0,0,0,0,0,0.0237,0.0234,0.022,0.0217,0.0214,0.0169,0.0158,0.0127,0.0136,0.0162,0.0136,0.0136,0.009,0.0083,0.0068,0.0022,0.0018,0.0035,0.0033,0.0031,0.003,0,0,0,0,0,0,0,0.0235,0.027,0.0243,0.0216,0.0213,0.0181,0.018,0.0178,0.0136,0.0136,0.0136,0.0136,0.0052,0.0049,0.0045,0.0026,0,0,0.0035,0.0034,0,0,0,0,0,0,0,0,0.027,0.027,0.0243,0.0242,0.0242,0.0181,0.018,0.0178,0.0136,0.0136,0.0136,0.0136,0.0051,0.0049,0.0046,0,0,0,0,0,0,0,0,0,0,0,0,0,0,0,0.0243,0.0242,0,0.0181,0.018,0.0179,0.0136,0.0136,0.0136,0.0136,0.005,0.0048,0.0046,0,0,0,0,0,0,0,0,0,0,0,0,0,0,0,0,0,0,0,0,0,0,0,0,0,0,0,0,0,0,0,0,0,0,0,0,0,0,0,0,0,0,0,0,0,0,0,0,0,0,0,0,0,0,0,0,0,0,0,0,0,0,0,0,0,0,0,0,0]}]]]